[TLELIST] Archives

 

[list_settings.list_name] Current TLEs

January 10th 2012 PST

HST 1 20580U 90037B 12008.68859742 .00001910 00000-0 12946-3 0 9204 2 20580 028.4691 113.5060 0003606 149.3671 210.7173 15.02076552990573 ISS (ZARYA) 1 25544U 98067A 12009.36716284 .00023919 00000-0 30270-3 0 7839 2 25544 051.6400 203.8369 0023453 261.1369 160.6225 15.59051266753090 CXO 1 25867U 99040B 12007.58333333 -.00001034 00000-0 00000+0 0 6873 2 25867 071.0292 016.9175 8732987 277.6754 355.1947 00.37800482 8545 ____________________________________________________________________ These 2-Line ...Continue Reading

[list_settings.list_name] Current TLEs

January 9th 2012 PST

HST 1 20580U 90037B 12006.76172837 .00001912 00000-0 12963-3 0 9193 2 20580 028.4689 126.1094 0003555 129.5658 230.5242 15.02069848990280 ISS (ZARYA) 1 25544U 98067A 12008.47339243 .00006773 00000-0 90760-4 0 7779 2 25544 051.6426 208.3210 0023661 258.5223 183.6104 15.59018525752959 CXO 1 25867U 99040B 12007.58333333 -.00001034 00000-0 00000+0 0 6873 2 25867 071.0292 016.9175 8732987 277.6754 355.1947 00.37800482 8545 ____________________________________________________________________ These 2-Line ...Continue Reading

[list_settings.list_name] Current TLEs

January 8th 2012 PST

HST 1 20580U 90037B 12006.76172837 .00001912 00000-0 12963-3 0 9193 2 20580 028.4689 126.1094 0003555 129.5658 230.5242 15.02069848990280 ISS (ZARYA) 1 25544U 98067A 12007.37981302 .00014952 00000-0 19224-3 0 7713 2 25544 051.6426 213.8096 0023658 252.9018 167.5411 15.59000491752784 CXO 1 25867U 99040B 12007.58333333 -.00001034 00000-0 00000+0 0 6873 2 25867 071.0292 016.9175 8732987 277.6754 355.1947 00.37800482 8545 ____________________________________________________________________ These 2-Line ...Continue Reading

[list_settings.list_name] Current TLEs

January 7th 2012 PST

HST 1 20580U 90037B 12005.76507043 .00001923 00000-0 13049-3 0 9180 2 20580 028.4687 132.6268 0003565 119.8028 240.3023 15.02066476990131 ISS (ZARYA) 1 25544U 98067A 12006.48525286 .00016129 00000-0 20701-3 0 7663 2 25544 051.6427 218.3020 0023593 249.4422 187.0901 15.58978366752640 CXO 1 25867U 99040B 12007.58333333 -.00001034 00000-0 00000+0 0 6873 2 25867 071.0292 016.9175 8732987 277.6754 355.1947 00.37800482 8545 ____________________________________________________________________ These 2-Line ...Continue Reading

[list_settings.list_name] Current TLEs

January 6th 2012 PST

HST 1 20580U 90037B 12003.70530029 .00001815 00000-0 12250-3 0 9174 2 20580 028.4686 146.0963 0003477 098.4410 261.6736 15.02058594989823 ISS (ZARYA) 1 25544U 98067A 12005.31309028 .00016673 00000-0 21406-3 0 7597 2 25544 051.6425 224.1890 0023567 244.9624 088.7244 15.58941715752457 CXO 1 25867U 99040B 12004.95833333 -.00001147 00000-0 00000+0 0 6860 2 25867 071.0139 017.1190 8731693 277.6807 357.7671 00.37798351 8539 ____________________________________________________________________ These 2-Line ...Continue Reading

[list_settings.list_name] Current TLEs

January 5th 2012 PST

HST 1 20580U 90037B 12003.70530029 .00001815 00000-0 12250-3 0 9174 2 20580 028.4686 146.0963 0003477 098.4410 261.6736 15.02058594989823 ISS (ZARYA) 1 25544U 98067A 12004.35468750 .00015322 00000-0 19750-3 0 7531 2 25544 051.6424 229.0003 0023829 241.2918 110.1226 15.58904224752301 CXO 1 25867U 99040B 12004.95833333 -.00001147 00000-0 00000+0 0 6860 2 25867 071.0139 017.1190 8731693 277.6807 357.7671 00.37798351 8539 ____________________________________________________________________ These 2-Line ...Continue Reading

[list_settings.list_name] Current TLEs

January 4th 2012 PST

HST 1 20580U 90037B 12001.64551719 .00001666 00000-0 11139-3 0 9162 2 20580 028.4689 159.5682 0003375 077.2629 282.8452 15.02050898989512 ISS (ZARYA) 1 25544U 98067A 12003.21996688 .00015263 00000-0 19703-3 0 7476 2 25544 051.6429 234.6985 0023863 236.9198 222.2151 15.58868411752136 CXO 1 25867U 99040B 12004.95833333 -.00001147 00000-0 00000+0 0 6860 2 25867 071.0139 017.1190 8731693 277.6807 357.7671 00.37798351 8539 ____________________________________________________________________ These 2-Line ...Continue Reading

[list_settings.list_name] Current TLEs

January 3rd 2012 PST

HST 1 20580U 90037B 12001.64551719 .00001666 00000-0 11139-3 0 9162 2 20580 028.4689 159.5682 0003375 077.2629 282.8452 15.02050898989512 ISS (ZARYA) 1 25544U 98067A 12002.36652778 .00015053 00000-0 19460-3 0 7411 2 25544 051.6428 238.9830 0023953 233.7408 112.8084 15.58840713751997 CXO 1 25867U 99040B 12002.29166667 -.00001163 00000-0 00000+0 0 6840 2 25867 070.9965 017.2979 8733299 277.6912 354.6891 00.37802903 8529 ____________________________________________________________________ These 2-Line ...Continue Reading

[list_settings.list_name] Current TLEs

January 2nd 2012 PST

HST 1 20580U 90037B 11363.92126854 .00001589 00000-0 10574-3 0 9156 2 20580 028.4690 177.3802 0003400 046.5950 313.4881 15.02042309989101 ISS (ZARYA) 1 25544U 98067A 12001.40285880 .00015002 00000-0 19417-3 0 7350 2 25544 051.6433 243.8197 0024017 229.8319 105.2280 15.58810581751841 CXO 1 25867U 99040B 12002.29166667 -.00001163 00000-0 00000+0 0 6840 2 25867 070.9965 017.2979 8733299 277.6912 354.6891 00.37802903 8529 ____________________________________________________________________ These 2-Line ...Continue Reading

[list_settings.list_name] Current TLEs

January 1st 2012 PST

HST 1 20580U 90037B 11363.92126854 .00001589 00000-0 10574-3 0 9156 2 20580 028.4690 177.3802 0003400 046.5950 313.4881 15.02042309989101 ISS (ZARYA) 1 25544U 98067A 11365.44454861 .00014586 00000-0 18920-3 0 7290 2 25544 051.6436 248.6312 0024042 226.0996 127.6636 15.58779585751698 CXO 1 25867U 99040B 11364.66666667 -.00001068 00000-0 00000+0 0 6839 2 25867 070.9722 017.5030 8735314 277.6758 357.3528 00.37805747 8514 ____________________________________________________________________ These 2-Line ...Continue Reading
  • This mailing list is a public mailing list - anyone may join or leave, at any time.
  • This mailing list is announce-only.

International Space Station (ISS) / Hubble Space Telescope (HST) / Chandra X-Ray Observatory Orbital Data via EMAIL

Privacy Policy:

Private list